Hourly Data Report for May 10, 2021

VINELAND STATION RCS
ONTARIO
Current Station Operator: ECCC - MSC

43°11'00.000" N
79°24'00.000" W
79.20 m
6139148
71171
XVN

Download Data

Hourly Data (May 2021)
Hourly Data Report for May 10, 2021
TIME
LST
Temp Definition
°C
Dew Point Definition
°C
Rel Hum Definition
%
Precip. Amount Definition
mm

Wind Dir Definition
10's deg

Wind Spd Definition
km/h
Visibility Definition
km
Stn Press Definition
kPa
Hmdx Definition


Wind Chill Definition


Weather Definition


00:00 5.8 3.9 87 0.0 24 4   100.27     LegendNANA
01:00 6.3 2.7 78 0.0 32 8   100.25     LegendNANA
02:00 5.6 2.1 78 0.0 31 9   100.26     LegendNANA
03:00 4.2 0.4 77 0.0 24 5   100.34     LegendNANA
04:00 3.5 -0.5 75 0.0 25 8   100.45     LegendNANA
05:00 2.8 -1.2 75 0.0 24 12   100.50     LegendNANA
06:00 4.0 -0.2 74 0.0 24 11   100.51     LegendNANA
07:00 6.4 1.5 71 0.0 27 15   100.53     LegendNANA
08:00 7.8 1.8 66 0.0 28 15   100.53     LegendNANA
09:00 9.5 3.7 67 0.0 30 13   100.55     LegendNANA
10:00 11.5 3.9 60 0.0 29 18   100.60     LegendNANA
11:00 12.3 3.3 54 0.0 31 17   100.61     LegendNANA
12:00 12.4 2.7 52 0.0 30 16   100.59     LegendNANA
13:00 12.3 2.8 52 0.0 31 12   100.57     LegendNANA
14:00 12.2 2.4 51 0.0 33 6   100.55     LegendNANA
15:00 12.5 1.9 49 0.0 18 3   100.54     LegendNANA
16:00 12.3 3.1 53 0.0 24 12   100.52     LegendNANA
17:00 11.8 2.0 51 0.0 28 16   100.60     LegendNANA
18:00 11.9 -0.1 43 0.0 29 27   100.68     LegendNANA
19:00 10.1 0.2 50 0.0 29 21   100.74     LegendNANA
20:00 9.0 1.1 58 0.0 29 15   100.79     LegendNANA
21:00 8.3 0.7 58 0.0 28 11   100.85     LegendNANA
22:00 8.3 1.0 60 0.0 29 12   100.84     LegendNANA
23:00 7.3 0.9 64 0.0 31 14   100.85     LegendNANA

Notes on Data Quality.

Legend

  • E = Estimated
  • M = Missing
  • NA = Not Available*
  • [empty] = Indicates an unobserved value
Date modified: